Bar Harbor, ME

7:04 PM EDT on August 23, 2019 (GMT -0400)
Hancock County-Bar Harbor

Weather History for KBHB - June, 2019

Change the Weather History Date:

Saturday, June 1, 2019

  Actual Average Record
Temperature  
Mean Temperature 52 °F -  
Max Temperature 62 °F 71 °F 82 °F (2013)
Min Temperature 43 °F 48 °F 36 °F (1967)
Degree Days  
Heating Degree Days 12    
Growing Degree Days 2 (Base 50)    
Moisture  
Dew Point 45 °F    
Average Humidity 76    
Maximum Humidity 97    
Minimum Humidity 38    
Precipitation  
Precipitation 0.00 in - - ()
Sea Level Pressure  
Sea Level Pressure 29.90 in    
Wind  
Wind Speed 3 mph (SSE)    
Max Wind Speed 9 mph    
Max Gust Speed -    
Visibility 10 miles    
Events      
Averages and records for this station are not official NWS values.
T = Trace of Precipitation, MM = Missing Value Source: NWS Daily Summary

Daily Weather History Graph

Daily Weather History Graph

Search for Another Location

Airport or City:

Astronomy

Jun. 01, 2019 Rise Set
Actual Time 4:52 AM EDT 8:10 PM EDT
Civil Twilight 4:16 AM EDT 8:46 PM EDT
Nautical Twilight 3:29 AM EDT 9:33 PM EDT
Astronomical Twilight 2:32 AM EDT 10:31 PM EDT
Moon 4:02 AM EDT (6/1) 6:14 PM EDT (6/1)
Length of Visible Light 16h 30m
Length of Day
15h 18m
Waning Crescent, 4% of the Moon is Illuminated
Jun 1
Waning Crescent
Jun 3
New
Jun 10
First Quarter
Jun 17
Full
Jun 25
Last Quarter

Hourly Weather History & Observations

Time (EDT) Temp. Windchill Dew Point Humidity Pressure Visibility Wind Dir Wind Speed Gust Speed Precip Events Conditions
12:56 AM 46.0 °F 44.8 °F 45.0 °F 96% 29.86 in 10.0 mi SW 3.5 mph - N/A   Clear
1:56 AM 44.1 °F 42.5 °F 43.0 °F 96% 29.86 in 10.0 mi SW 3.5 mph - N/A   Clear
2:56 AM 43.0 °F - 42.1 °F 97% 29.86 in 10.0 mi Calm Calm - N/A   Mostly Cloudy
3:56 AM 46.0 °F - 45.0 °F 96% 29.86 in 10.0 mi Calm Calm - N/A   Overcast
4:56 AM 45.0 °F 43.5 °F 44.1 °F 97% 29.87 in 10.0 mi North 3.5 mph - N/A   Overcast
5:56 AM 46.9 °F - 45.0 °F 93% 29.90 in 10.0 mi Calm Calm - N/A   Overcast
6:56 AM 50.0 °F - 46.0 °F 86% 29.92 in 10.0 mi Calm Calm - N/A   Clear
7:56 AM 54.0 °F - 46.0 °F 75% 29.92 in 10.0 mi North 3.5 mph - N/A   Clear
8:56 AM 57.0 °F - 43.0 °F 59% 29.93 in 10.0 mi Variable 3.5 mph - N/A   Mostly Cloudy
9:56 AM 61.0 °F - 37.0 °F 41% 29.94 in 10.0 mi Calm Calm - N/A   Partly Cloudy
10:56 AM 61.0 °F - 37.0 °F 41% 29.93 in 10.0 mi East 6.9 mph - N/A   Partly Cloudy
11:56 AM 62.1 °F - 36.0 °F 38% 29.92 in 10.0 mi SE 6.9 mph - N/A   Clear
12:56 PM 62.1 °F - 37.0 °F 39% 29.92 in 10.0 mi ESE 5.8 mph - N/A   Partly Cloudy
1:56 PM 59.0 °F - 41.0 °F 51% 29.92 in 10.0 mi SSE 8.1 mph - N/A   Overcast
2:56 PM 60.1 °F - 43.0 °F 53% 29.91 in 10.0 mi SE 3.5 mph - N/A   Overcast
3:56 PM 61.0 °F - 44.1 °F 54% 29.90 in 10.0 mi South 8.1 mph - N/A   Partly Cloudy
4:56 PM 59.0 °F - 46.9 °F 64% 29.89 in 10.0 mi ESE 4.6 mph - N/A   Clear
5:56 PM 55.9 °F - 50.0 °F 80% 29.90 in 10.0 mi South 5.8 mph - N/A   Overcast
6:56 PM 53.1 °F - 50.0 °F 89% 29.91 in 10.0 mi SSW 8.1 mph - N/A   Overcast
7:13 PM 51.8 °F - 48.2 °F 88% 29.89 in 10.0 mi SSE 9.2 mph - N/A   Overcast
7:50 PM 51.8 °F - 48.2 °F 88% 29.90 in 10.0 mi SSW 3.5 mph - N/A   Overcast
7:56 PM 52.0 °F - 48.9 °F 89% 29.91 in 10.0 mi SSW 4.6 mph - N/A   Overcast
8:56 PM 51.1 °F - 48.9 °F 92% 29.92 in 10.0 mi South 3.5 mph - N/A   Overcast
9:56 PM 50.0 °F - 48.0 °F 93% 29.93 in 10.0 mi Calm Calm - N/A   Overcast
10:56 PM 50.0 °F - 48.0 °F 93% 29.92 in 10.0 mi SSE 5.8 mph - N/A   Overcast
11:56 PM 48.9 °F - 48.0 °F 97% 29.92 in 10.0 mi Calm Calm - N/A   Overcast